{"data":{"norad_id":64242,"intl_designator":"2025-119K","name":"STARLINK-11690 [DTC]","alt_names":[],"object_type":"PAYLOAD","status":"ACTIVE","operator":null,"country":"US","launch_date":"2025-06-03","launch_site_code":"AFETR","launch_vehicle":null,"mission":null,"orbit_class":"UNKNOWN","rcs_meters":null,"size_class":null,"mass_kg":null,"dimensions":null,"purposes":["comms"],"wikipedia_slug":null,"has_3d_model":false,"image_url":null,"decayed_at":null,"tle_current":{"epoch":"2026-05-24T21:54:32.686848Z","epoch_age_seconds":89521,"freshness":"FRESH","line1":"1 64242U 25119K   26144.91287832  .00220057  00000+0  16629-2 0  9994","line2":"2 64242  42.9980 109.5750 0002885 282.2409  77.8135 15.70989221 57231","mean_motion":15.70989221,"eccentricity":0.0002885,"inclination_deg":42.998,"raan_deg":109.575,"arg_perigee_deg":282.2409,"mean_anomaly_deg":77.8135,"bstar":0.0016629,"rev_number":5723,"period_min":91.661991104139,"perigee_km":354.12577546944,"apogee_km":358.01141209705,"semimajor_km":6734.2055937832,"source":"CELESTRAK","updated_at":"2026-05-25T13:38:20.352795Z"}}}